date,time,SUV Intensity [MED/Hr],UV Index,Daily total [MED],Since Last [MED]
09/11/2022,12:35:15,0.237,1.0,0.748,0.748
09/11/2022,12:44:36,0.209,0.0,0.782,0.034
09/11/2022,12:45:19,0.206,0.0,0.784,0.002
09/11/2022,12:55:47,0.233,1.0,0.82,0.036
09/11/2022,13:03:03,0.199,0.0,0.847,0.027
09/11/2022,13:04:29,0.198,0.0,0.851,0.004
09/11/2022,13:05:28,0.204,0.0,0.855,0.004
09/11/2022,13:06:28,0.201,0.0,0.858,0.003
09/11/2022,13:07:29,0.187,0.0,0.861,0.003
09/11/2022,13:08:28,0.178,0.0,0.864,0.003
09/11/2022,13:09:28,0.170,0.0,0.867,0.003
09/11/2022,13:10:28,0.165,0.0,0.87,0.003
09/11/2022,13:11:28,0.163,0.0,0.873,0.003
09/11/2022,13:12:28,0.165,0.0,0.875,0.002
09/11/2022,13:13:29,0.159,0.0,0.878,0.003
09/11/2022,13:14:28,0.161,0.0,0.881,0.003
09/11/2022,13:15:28,0.164,0.0,0.883,0.002
09/11/2022,13:16:28,0.167,0.0,0.886,0.003
09/11/2022,13:17:28,0.170,0.0,0.889,0.003
09/11/2022,13:18:29,0.174,0.0,0.892,0.003
09/11/2022,13:19:28,0.172,0.0,0.895,0.003
09/11/2022,13:20:28,0.172,0.0,0.898,0.003
09/11/2022,13:21:29,0.172,0.0,0.901,0.003
09/11/2022,13:22:29,0.173,0.0,0.903,0.002
09/11/2022,13:23:28,0.172,0.0,0.906,0.003
09/11/2022,13:24:28,0.173,0.0,0.909,0.003
09/11/2022,13:25:28,0.174,0.0,0.912,0.003
09/11/2022,13:26:29,0.175,0.0,0.915,0.003
09/11/2022,13:27:28,0.179,0.0,0.918,0.003
09/11/2022,13:28:28,0.177,0.0,0.921,0.003
09/11/2022,13:29:28,0.180,0.0,0.924,0.003
09/11/2022,13:30:28,0.189,0.0,0.927,0.003
09/11/2022,13:31:28,0.185,0.0,0.93,0.003
09/11/2022,13:32:28,0.178,0.0,0.933,0.003
09/11/2022,13:33:29,0.175,0.0,0.936,0.003
09/11/2022,13:34:28,0.181,0.0,0.939,0.003
09/11/2022,13:35:29,0.182,0.0,0.942,0.003
09/11/2022,13:36:28,0.180,0.0,0.945,0.003
09/11/2022,13:37:30,0.178,0.0,0.948,0.003
09/11/2022,13:38:29,0.176,0.0,0.951,0.003
09/11/2022,13:39:29,0.172,0.0,0.954,0.003
09/11/2022,13:40:28,0.172,0.0,0.957,0.003
09/11/2022,13:41:29,0.171,0.0,0.959,0.002
09/11/2022,13:42:28,0.171,0.0,0.962,0.003
09/11/2022,13:43:28,0.162,0.0,0.965,0.003
09/11/2022,13:44:29,0.167,0.0,0.968,0.003
09/11/2022,13:45:29,0.164,0.0,0.971,0.003
09/11/2022,13:46:28,0.162,0.0,0.973,0.002
09/11/2022,13:47:29,0.157,0.0,0.976,0.003
09/11/2022,13:48:28,0.157,0.0,0.979,0.003
09/11/2022,13:49:28,0.152,0.0,0.981,0.002
09/11/2022,13:50:28,0.152,0.0,0.984,0.003
09/11/2022,13:51:28,0.149,0.0,0.986,0.002
09/11/2022,13:52:29,0.144,0.0,0.989,0.003
09/11/2022,13:53:28,0.141,0.0,0.991,0.002
09/11/2022,13:54:28,0.140,0.0,0.994,0.003
09/11/2022,13:55:29,0.134,0.0,0.996,0.002
09/11/2022,13:56:30,0.134,0.0,0.998,0.002
09/11/2022,13:57:29,0.128,0.0,1.0,0.002
09/11/2022,13:58:28,0.126,0.0,1.002,0.002
09/11/2022,13:59:29,0.126,0.0,1.004,0.002
09/11/2022,14:00:28,0.124,0.0,1.006,0.002
09/11/2022,14:01:29,0.123,0.0,1.009,0.003
09/11/2022,14:02:29,0.125,0.0,1.011,0.002
09/11/2022,14:03:29,0.122,0.0,1.013,0.002
09/11/2022,14:04:28,0.120,0.0,1.015,0.002
09/11/2022,14:05:29,0.120,0.0,1.017,0.002
09/11/2022,14:06:28,0.120,0.0,1.019,0.002
09/11/2022,14:07:29,0.119,0.0,1.021,0.002
09/11/2022,14:08:28,0.120,0.0,1.023,0.002
09/11/2022,14:16:28,0.113,0.0,1.038,0.015
09/11/2022,14:17:29,0.111,0.0,1.04,0.002
09/11/2022,14:18:28,0.110,0.0,1.042,0.002
09/11/2022,14:19:28,0.109,0.0,1.043,0.001
09/11/2022,14:20:29,0.107,0.0,1.045,0.002
09/11/2022,14:21:28,0.106,0.0,1.047,0.002
09/11/2022,14:22:29,0.104,0.0,1.049,0.002
09/11/2022,14:23:28,0.103,0.0,1.051,0.002
09/11/2022,14:24:28,0.102,0.0,1.052,0.001
09/11/2022,14:25:29,0.100,0.0,1.054,0.002
09/11/2022,14:26:29,0.099,0.0,1.056,0.002
09/11/2022,14:27:28,0.097,0.0,1.057,0.001
09/11/2022,14:28:29,0.095,0.0,1.059,0.002
09/11/2022,14:29:28,0.094,0.0,1.06,0.001
09/11/2022,14:30:29,0.094,0.0,1.062,0.002
09/11/2022,14:31:29,0.091,0.0,1.063,0.001
09/11/2022,14:32:29,0.090,0.0,1.065,0.002
09/11/2022,14:33:29,0.089,0.0,1.066,0.001
09/11/2022,14:34:29,0.086,0.0,1.068,0.002
09/11/2022,14:35:29,0.086,0.0,1.069,0.001
09/11/2022,14:36:28,0.085,0.0,1.071,0.002
09/11/2022,14:37:29,0.083,0.0,1.072,0.001
09/11/2022,14:38:29,0.082,0.0,1.074,0.002
09/11/2022,14:39:28,0.081,0.0,1.075,0.001
09/11/2022,14:40:29,0.079,0.0,1.076,0.001
09/11/2022,14:41:28,0.079,0.0,1.077,0.001
09/11/2022,14:42:29,0.076,0.0,1.079,0.002
09/11/2022,14:43:29,0.074,0.0,1.08,0.001
09/11/2022,14:44:29,0.074,0.0,1.081,0.001
09/11/2022,14:45:28,0.072,0.0,1.082,0.001
09/11/2022,14:46:29,0.071,0.0,1.084,0.002
09/11/2022,14:47:28,0.071,0.0,1.085,0.001
09/11/2022,14:48:28,0.069,0.0,1.086,0.001
09/11/2022,14:49:29,0.067,0.0,1.087,0.001
09/11/2022,14:50:29,0.066,0.0,1.088,0.001
09/11/2022,14:51:29,0.065,0.0,1.089,0.001
09/11/2022,14:52:29,0.063,0.0,1.09,0.001
09/11/2022,14:53:29,0.062,0.0,1.091,0.001
09/11/2022,14:54:28,0.061,0.0,1.093,0.002
09/11/2022,14:55:29,0.061,0.0,1.094,0.001
09/11/2022,14:56:28,0.059,0.0,1.095,0.001
09/11/2022,14:57:29,0.058,0.0,1.095,0.0
09/11/2022,14:58:28,0.056,0.0,1.096,0.001
09/11/2022,14:59:28,0.055,0.0,1.097,0.001
09/11/2022,15:00:29,0.054,0.0,1.098,0.001
09/11/2022,15:01:29,0.053,0.0,1.099,0.001
09/11/2022,15:02:29,0.051,0.0,1.1,0.001
09/11/2022,15:03:28,0.051,0.0,1.101,0.001
09/11/2022,15:04:29,0.050,0.0,1.102,0.001
09/11/2022,15:05:28,0.048,0.0,1.103,0.001
09/11/2022,15:06:28,0.047,0.0,1.103,0.0
09/11/2022,15:07:29,0.046,0.0,1.104,0.001
09/11/2022,15:08:32,0.044,0.0,1.105,0.001
09/11/2022,15:09:30,0.044,0.0,1.106,0.001
09/11/2022,15:10:29,0.043,0.0,1.106,0.0
09/11/2022,15:11:29,0.042,0.0,1.107,0.001
09/11/2022,15:12:29,0.041,0.0,1.108,0.001
09/11/2022,15:13:28,0.040,0.0,1.108,0.0
09/11/2022,15:14:29,0.039,0.0,1.109,0.001
09/11/2022,15:15:28,0.038,0.0,1.11,0.001
09/11/2022,15:16:29,0.039,0.0,1.11,0.0
09/11/2022,15:17:28,0.036,0.0,1.111,0.001
09/11/2022,15:18:29,0.036,0.0,1.112,0.001
09/11/2022,15:19:28,0.035,0.0,1.112,0.0
09/11/2022,15:20:29,0.034,0.0,1.113,0.001
09/11/2022,15:21:28,0.032,0.0,1.113,0.0
09/11/2022,15:22:29,0.032,0.0,1.114,0.001
09/11/2022,15:23:29,0.031,0.0,1.114,0.0
09/11/2022,15:24:29,0.030,0.0,1.115,0.001
09/11/2022,15:25:29,0.029,0.0,1.115,0.0
09/11/2022,15:26:29,0.029,0.0,1.116,0.001
09/11/2022,15:27:28,0.028,0.0,1.116,0.0
09/11/2022,15:28:29,0.027,0.0,1.117,0.001
09/11/2022,15:29:29,0.027,0.0,1.117,0.0
09/11/2022,15:30:29,0.027,0.0,1.118,0.001
09/11/2022,15:31:29,0.025,0.0,1.118,0.0
09/11/2022,15:32:29,0.024,0.0,1.119,0.001
09/11/2022,15:33:28,0.024,0.0,1.119,0.0
09/11/2022,15:34:29,0.023,0.0,1.119,0.0
09/11/2022,15:35:28,0.022,0.0,1.12,0.001
09/11/2022,15:36:29,0.021,0.0,1.12,0.0
09/11/2022,15:37:29,0.021,0.0,1.12,0.0
09/11/2022,15:38:29,0.019,0.0,1.121,0.001
09/11/2022,15:39:29,0.019,0.0,1.121,0.0
09/11/2022,15:40:29,0.019,0.0,1.121,0.0
09/11/2022,15:41:29,0.018,0.0,1.122,0.001
09/11/2022,15:42:28,0.018,0.0,1.122,0.0
09/11/2022,15:43:29,0.017,0.0,1.122,0.0
09/11/2022,15:44:28,0.016,0.0,1.123,0.001
09/11/2022,15:45:28,0.017,0.0,1.123,0.0
09/11/2022,15:46:29,0.015,0.0,1.123,0.0
09/11/2022,15:47:28,0.014,0.0,1.123,0.0
09/11/2022,15:48:28,0.014,0.0,1.124,0.001
09/11/2022,15:49:29,0.014,0.0,1.124,0.0
09/11/2022,15:50:28,0.013,0.0,1.124,0.0
09/11/2022,15:51:29,0.014,0.0,1.124,0.0
09/11/2022,15:52:28,0.012,0.0,1.125,0.001
09/11/2022,15:53:29,0.013,0.0,1.125,0.0
09/11/2022,15:54:28,0.010,0.0,1.125,0.0
09/11/2022,15:55:28,0.011,0.0,1.125,0.0
09/11/2022,15:56:29,0.010,0.0,1.125,0.0
09/11/2022,15:57:28,0.010,0.0,1.125,0.0
09/11/2022,15:58:29,0.010,0.0,1.126,0.001
09/11/2022,15:59:29,0.009,0.0,1.126,0.0
09/11/2022,16:00:29,0.009,0.0,1.126,0.0
09/11/2022,16:01:28,0.008,0.0,1.126,0.0
09/11/2022,16:02:29,0.007,0.0,1.126,0.0
09/11/2022,16:03:28,0.007,0.0,1.126,0.0
09/11/2022,16:04:29,0.007,0.0,1.126,0.0
09/11/2022,16:05:29,0.006,0.0,1.127,0.001
09/11/2022,16:06:29,0.006,0.0,1.127,0.0
09/11/2022,16:07:29,0.006,0.0,1.127,0.0
09/11/2022,16:08:28,0.004,0.0,1.127,0.0
09/11/2022,16:09:29,0.005,0.0,1.127,0.0
09/11/2022,16:10:28,0.004,0.0,1.127,0.0
09/11/2022,16:11:29,0.003,0.0,1.127,0.0
09/11/2022,16:12:29,0.005,0.0,1.127,0.0
09/11/2022,16:13:29,0.004,0.0,1.127,0.0
09/11/2022,16:14:29,0.003,0.0,1.127,0.0
09/11/2022,16:15:29,0.004,0.0,1.127,0.0
09/11/2022,16:16:29,0.003,0.0,1.127,0.0
09/11/2022,16:17:28,0.003,0.0,1.127,0.0
09/11/2022,16:18:29,0.003,0.0,1.127,0.0
09/11/2022,16:19:28,0.002,0.0,1.127,0.0
09/11/2022,16:20:28,0.002,0.0,1.127,0.0
09/11/2022,16:21:29,0.002,0.0,1.127,0.0
09/11/2022,16:22:29,0.002,0.0,1.127,0.0
09/11/2022,16:23:29,0.002,0.0,1.127,0.0
09/11/2022,16:24:29,0.002,0.0,1.127,0.0
09/11/2022,16:25:29,0.001,0.0,1.127,0.0
09/11/2022,16:26:28,0.001,0.0,1.127,0.0
09/11/2022,16:27:29,0.001,0.0,1.127,0.0
09/11/2022,16:28:29,0.001,0.0,1.127,0.0
09/11/2022,16:29:28,0.002,0.0,1.127,0.0
09/11/2022,16:30:29,0.001,0.0,1.127,0.0
09/11/2022,16:31:29,0.001,0.0,1.127,0.0
09/11/2022,16:32:29,0.001,0.0,1.127,0.0
09/11/2022,16:33:29,-0.000,0.0,1.127,0.0
09/11/2022,16:34:29,0.000,0.0,1.127,0.0
09/11/2022,16:35:29,0.001,0.0,1.127,0.0
09/11/2022,16:36:29,0.000,0.0,1.127,0.0
09/11/2022,16:37:28,0.000,0.0,1.127,0.0
09/11/2022,16:38:29,0.000,0.0,1.127,0.0
09/11/2022,16:39:28,-0.001,0.0,1.127,0.0
09/11/2022,16:40:29,-0.000,0.0,1.127,0.0
09/11/2022,16:41:28,0.000,0.0,1.127,0.0
09/11/2022,16:42:29,-0.000,0.0,1.127,0.0
09/11/2022,16:43:28,0.000,0.0,1.127,0.0
09/11/2022,16:44:29,0.001,0.0,1.127,0.0
09/11/2022,16:45:29,-0.000,0.0,1.127,0.0
09/11/2022,16:46:28,-0.000,0.0,1.127,0.0
09/11/2022,16:47:29,-0.000,0.0,1.127,0.0
09/11/2022,16:48:29,-0.000,0.0,1.127,0.0
09/11/2022,16:49:29,-0.001,0.0,1.127,0.0
09/11/2022,16:50:29,-0.000,0.0,1.127,0.0
09/11/2022,16:51:29,-0.001,0.0,1.127,0.0
09/11/2022,16:52:29,-0.000,0.0,1.127,0.0
09/11/2022,16:53:29,-0.001,0.0,1.127,0.0
09/11/2022,16:54:29,0.000,0.0,1.127,0.0
09/11/2022,16:55:29,0.000,0.0,1.127,0.0
09/11/2022,16:56:29,-0.000,0.0,1.127,0.0
09/11/2022,16:57:29,-0.000,0.0,1.127,0.0
09/11/2022,16:58:29,0.000,0.0,1.127,0.0
09/11/2022,16:59:29,-0.001,0.0,1.127,0.0
09/11/2022,17:00:29,-0.001,0.0,1.127,0.0
09/11/2022,17:01:29,-0.000,0.0,1.127,0.0
09/11/2022,17:02:29,-0.000,0.0,1.127,0.0
09/11/2022,17:03:29,-0.001,0.0,1.127,0.0
09/11/2022,17:04:29,-0.000,0.0,1.127,0.0
09/11/2022,17:05:29,-0.001,0.0,1.127,0.0
09/11/2022,17:06:28,-0.001,0.0,1.127,0.0
09/11/2022,17:07:29,-0.000,0.0,1.127,0.0
09/11/2022,17:08:28,-0.001,0.0,1.127,0.0
09/11/2022,17:09:29,-0.000,0.0,1.127,0.0
09/11/2022,17:10:28,0.000,0.0,1.127,0.0
09/11/2022,17:11:28,-0.000,0.0,1.127,0.0
09/11/2022,17:12:29,-0.000,0.0,1.127,0.0
09/11/2022,17:13:29,-0.000,0.0,1.127,0.0
09/11/2022,17:14:29,-0.001,0.0,1.127,0.0
09/11/2022,17:15:29,0.000,0.0,1.127,0.0
09/11/2022,17:16:29,-0.001,0.0,1.127,0.0
09/11/2022,17:17:29,0.001,0.0,1.127,0.0
09/11/2022,17:18:29,-0.001,0.0,1.127,0.0
09/11/2022,17:19:28,-0.001,0.0,1.127,0.0
09/11/2022,17:20:28,-0.001,0.0,1.127,0.0
09/11/2022,17:21:29,-0.001,0.0,1.127,0.0
09/11/2022,17:22:29,-0.001,0.0,1.127,0.0
09/11/2022,17:23:29,-0.000,0.0,1.127,0.0
09/11/2022,17:24:32,-0.001,0.0,1.127,0.0
09/11/2022,17:25:29,-0.001,0.0,1.127,0.0
09/11/2022,17:26:28,0.000,0.0,1.127,0.0
09/11/2022,17:27:29,-0.000,0.0,1.127,0.0
09/11/2022,17:28:29,0.000,0.0,1.127,0.0
09/11/2022,17:29:29,-0.001,0.0,1.127,0.0
09/11/2022,17:30:29,-0.001,0.0,1.127,0.0
09/11/2022,17:31:29,-0.000,0.0,1.127,0.0
09/11/2022,17:32:29,-0.000,0.0,1.127,0.0
09/11/2022,17:33:29,-0.001,0.0,1.127,0.0
09/11/2022,17:34:29,-0.000,0.0,1.127,0.0
09/11/2022,17:35:29,-0.000,0.0,1.127,0.0
09/11/2022,17:36:29,0.000,0.0,1.127,0.0
09/11/2022,17:37:29,-0.000,0.0,1.127,0.0
09/11/2022,17:38:29,-0.001,0.0,1.127,0.0
09/11/2022,17:39:29,-0.000,0.0,1.127,0.0
09/11/2022,17:40:29,0.001,0.0,1.127,0.0
09/11/2022,17:41:28,-0.000,0.0,1.127,0.0
09/11/2022,17:42:29,-0.000,0.0,1.127,0.0
09/11/2022,17:43:29,-0.000,0.0,1.127,0.0
09/11/2022,17:44:29,-0.000,0.0,1.127,0.0
09/11/2022,17:45:28,-0.000,0.0,1.127,0.0
09/11/2022,17:46:29,0.000,0.0,1.127,0.0
09/11/2022,17:47:29,-0.001,0.0,1.127,0.0
09/11/2022,17:48:29,-0.000,0.0,1.127,0.0
09/11/2022,17:49:28,-0.000,0.0,1.127,0.0
09/11/2022,17:50:29,-0.000,0.0,1.127,0.0
09/11/2022,17:51:29,-0.001,0.0,1.127,0.0
09/11/2022,17:52:29,-0.001,0.0,1.127,0.0
09/11/2022,17:53:29,-0.000,0.0,1.127,0.0
09/11/2022,17:54:29,-0.000,0.0,1.127,0.0
09/11/2022,17:55:29,0.001,0.0,1.127,0.0
09/11/2022,17:56:29,-0.000,0.0,1.127,0.0
09/11/2022,17:57:29,-0.000,0.0,1.127,0.0
09/11/2022,17:58:29,-0.000,0.0,1.127,0.0
09/11/2022,17:59:29,0.000,0.0,1.127,0.0
09/11/2022,18:00:29,-0.000,0.0,1.127,0.0
09/11/2022,18:01:29,0.001,0.0,1.127,0.0
09/11/2022,18:02:29,-0.000,0.0,1.127,0.0
09/11/2022,18:03:29,-0.001,0.0,1.127,0.0
09/11/2022,18:04:29,0.000,0.0,1.127,0.0
09/11/2022,18:05:29,0.001,0.0,1.127,0.0
09/11/2022,18:06:29,0.000,0.0,1.127,0.0
09/11/2022,18:07:29,0.000,0.0,1.127,0.0
09/11/2022,18:08:29,-0.000,0.0,1.127,0.0
09/11/2022,18:09:29,-0.001,0.0,1.127,0.0
09/11/2022,18:10:29,-0.000,0.0,1.127,0.0
09/11/2022,18:11:29,0.001,0.0,1.127,0.0
09/11/2022,18:12:29,-0.000,0.0,1.127,0.0
09/11/2022,18:13:29,-0.000,0.0,1.127,0.0
09/11/2022,18:14:29,-0.000,0.0,1.127,0.0
09/11/2022,18:15:29,0.000,0.0,1.127,0.0
09/11/2022,18:16:29,0.001,0.0,1.127,0.0
09/11/2022,18:17:29,-0.000,0.0,1.127,0.0
09/11/2022,18:18:29,-0.000,0.0,1.127,0.0
09/11/2022,18:19:29,-0.001,0.0,1.127,0.0
09/11/2022,18:20:29,-0.000,0.0,1.127,0.0
09/11/2022,18:21:29,-0.000,0.0,1.127,0.0
09/11/2022,18:22:29,-0.000,0.0,1.127,0.0
09/11/2022,18:23:29,-0.000,0.0,1.127,0.0
09/11/2022,18:24:29,-0.001,0.0,1.127,0.0
09/11/2022,18:25:29,-0.000,0.0,1.127,0.0
09/11/2022,18:26:29,-0.000,0.0,1.127,0.0
09/11/2022,18:27:29,-0.000,0.0,1.127,0.0
09/11/2022,18:28:29,0.000,0.0,1.127,0.0
09/11/2022,18:29:29,-0.001,0.0,1.127,0.0
09/11/2022,18:30:29,-0.000,0.0,1.127,0.0
09/11/2022,18:31:29,0.000,0.0,1.127,0.0
09/11/2022,18:32:29,-0.000,0.0,1.127,0.0
09/11/2022,18:33:29,-0.000,0.0,1.127,0.0
09/11/2022,18:34:29,0.001,0.0,1.127,0.0
09/11/2022,18:35:29,0.000,0.0,1.127,0.0
09/11/2022,18:36:29,-0.000,0.0,1.127,0.0
09/11/2022,18:37:29,0.001,0.0,1.127,0.0
09/11/2022,18:38:29,-0.001,0.0,1.127,0.0
09/11/2022,18:39:29,0.001,0.0,1.127,0.0
09/11/2022,18:40:29,0.000,0.0,1.127,0.0
09/11/2022,18:41:29,-0.001,0.0,1.127,0.0
09/11/2022,18:42:29,-0.000,0.0,1.127,0.0
09/11/2022,18:43:29,0.001,0.0,1.127,0.0
09/11/2022,18:44:29,-0.001,0.0,1.127,0.0
09/11/2022,18:45:29,0.001,0.0,1.127,0.0
09/11/2022,18:46:29,-0.001,0.0,1.127,0.0
09/11/2022,18:47:29,0.001,0.0,1.127,0.0
09/11/2022,18:48:29,-0.000,0.0,1.127,0.0
09/11/2022,18:49:29,-0.000,0.0,1.127,0.0
09/11/2022,18:50:29,0.000,0.0,1.127,0.0
09/11/2022,18:51:29,0.000,0.0,1.127,0.0
09/11/2022,18:52:29,-0.000,0.0,1.127,0.0
09/11/2022,18:53:29,-0.000,0.0,1.127,0.0
09/11/2022,18:54:29,0.000,0.0,1.127,0.0
09/11/2022,18:55:29,0.001,0.0,1.127,0.0
09/11/2022,18:56:29,0.000,0.0,1.127,0.0
09/11/2022,18:57:29,0.001,0.0,1.127,0.0
09/11/2022,18:58:29,0.000,0.0,1.127,0.0
09/11/2022,18:59:29,-0.001,0.0,1.127,0.0
09/11/2022,19:00:29,-0.000,0.0,1.127,0.0
09/11/2022,19:01:28,-0.000,0.0,1.127,0.0
09/11/2022,19:02:29,-0.000,0.0,1.127,0.0
09/11/2022,19:03:29,-0.001,0.0,1.127,0.0
09/11/2022,19:04:27,-0.000,0.0,1.127,0.0
09/11/2022,19:05:28,-0.000,0.0,1.127,0.0
09/11/2022,19:06:28,-0.000,0.0,1.127,0.0
09/11/2022,19:07:28,-0.001,0.0,1.127,0.0
09/11/2022,19:08:27,-0.000,0.0,1.127,0.0
09/11/2022,19:09:27,-0.001,0.0,1.127,0.0
09/11/2022,19:10:27,-0.000,0.0,1.127,0.0
09/11/2022,19:11:28,-0.000,0.0,1.127,0.0
09/11/2022,19:12:28,-0.000,0.0,1.127,0.0
09/11/2022,19:13:27,-0.001,0.0,1.127,0.0
09/11/2022,19:14:28,-0.000,0.0,1.127,0.0
09/11/2022,19:15:27,-0.000,0.0,1.127,0.0
09/11/2022,19:16:27,-0.000,0.0,1.127,0.0
09/11/2022,19:17:27,0.001,0.0,1.127,0.0
09/11/2022,19:18:27,-0.001,0.0,1.127,0.0
09/11/2022,19:19:28,0.000,0.0,1.127,0.0
09/11/2022,19:20:28,-0.001,0.0,1.127,0.0
09/11/2022,19:21:27,-0.000,0.0,1.127,0.0
09/11/2022,19:22:27,0.000,0.0,1.127,0.0
09/11/2022,19:23:27,-0.000,0.0,1.127,0.0
09/11/2022,19:24:27,-0.001,0.0,1.127,0.0
09/11/2022,19:25:27,0.001,0.0,1.127,0.0
09/11/2022,19:26:28,0.000,0.0,1.127,0.0
09/11/2022,19:27:27,0.001,0.0,1.127,0.0
09/11/2022,19:28:27,-0.001,0.0,1.127,0.0
09/11/2022,19:29:27,0.000,0.0,1.127,0.0
09/11/2022,19:30:28,-0.000,0.0,1.127,0.0
09/11/2022,19:31:27,-0.001,0.0,1.127,0.0
09/11/2022,19:32:27,-0.001,0.0,1.127,0.0
09/11/2022,19:33:28,0.001,0.0,1.127,0.0
09/11/2022,19:34:27,0.000,0.0,1.127,0.0
09/11/2022,19:35:27,0.001,0.0,1.127,0.0
09/11/2022,19:36:28,0.000,0.0,1.127,0.0
09/11/2022,19:37:28,0.000,0.0,1.127,0.0
09/11/2022,19:38:27,-0.001,0.0,1.127,0.0
09/11/2022,19:39:27,0.001,0.0,1.127,0.0
09/11/2022,19:40:28,0.000,0.0,1.127,0.0
09/11/2022,19:41:28,-0.001,0.0,1.127,0.0
09/11/2022,19:42:28,0.000,0.0,1.127,0.0
09/11/2022,19:43:28,0.000,0.0,1.127,0.0
09/11/2022,19:44:27,0.001,0.0,1.127,0.0
09/11/2022,19:45:27,-0.001,0.0,1.127,0.0
09/11/2022,19:46:27,0.000,0.0,1.127,0.0
09/11/2022,19:47:27,0.000,0.0,1.127,0.0
09/11/2022,19:48:28,0.000,0.0,1.127,0.0
09/11/2022,19:49:27,-0.000,0.0,1.127,0.0
09/11/2022,19:50:28,-0.001,0.0,1.127,0.0
09/11/2022,19:51:28,0.000,0.0,1.127,0.0
09/11/2022,19:52:27,-0.001,0.0,1.127,0.0
09/11/2022,19:53:27,0.000,0.0,1.127,0.0
09/11/2022,19:54:27,-0.000,0.0,1.127,0.0
09/11/2022,19:55:27,-0.000,0.0,1.127,0.0
09/11/2022,19:56:27,0.001,0.0,1.127,0.0
09/11/2022,19:57:27,-0.001,0.0,1.127,0.0
09/11/2022,19:58:27,0.000,0.0,1.127,0.0
09/11/2022,19:59:27,0.000,0.0,1.127,0.0
09/11/2022,20:00:27,-0.000,0.0,1.127,0.0
09/11/2022,20:01:27,0.001,0.0,1.127,0.0
09/11/2022,20:02:27,-0.001,0.0,1.127,0.0
09/11/2022,20:03:28,0.000,0.0,1.127,0.0
09/11/2022,20:04:28,0.000,0.0,1.127,0.0
09/11/2022,20:05:28,0.000,0.0,1.127,0.0
09/11/2022,20:06:27,0.000,0.0,1.127,0.0
09/11/2022,20:07:27,0.001,0.0,1.127,0.0
09/11/2022,20:08:27,0.000,0.0,1.127,0.0
09/11/2022,20:09:28,0.000,0.0,1.127,0.0
09/11/2022,20:10:27,0.000,0.0,1.127,0.0
09/11/2022,20:11:28,0.000,0.0,1.127,0.0
09/11/2022,20:12:27,-0.000,0.0,1.127,0.0
09/11/2022,20:13:28,-0.000,0.0,1.127,0.0
09/11/2022,20:14:28,0.000,0.0,1.127,0.0
09/11/2022,20:15:28,-0.000,0.0,1.127,0.0
09/11/2022,20:16:27,-0.000,0.0,1.127,0.0
09/11/2022,20:17:28,-0.000,0.0,1.127,0.0
09/11/2022,20:18:28,0.000,0.0,1.127,0.0
09/11/2022,20:19:27,0.001,0.0,1.127,0.0
09/11/2022,20:20:28,0.001,0.0,1.127,0.0
09/11/2022,20:21:28,0.000,0.0,1.127,0.0
09/11/2022,20:22:28,-0.001,0.0,1.127,0.0
09/11/2022,20:23:27,0.000,0.0,1.127,0.0
09/11/2022,20:24:27,0.000,0.0,1.127,0.0
09/11/2022,20:25:28,0.000,0.0,1.127,0.0
09/11/2022,20:26:27,0.000,0.0,1.127,0.0
09/11/2022,20:27:27,0.000,0.0,1.127,0.0
09/11/2022,20:28:31,0.000,0.0,1.127,0.0
09/11/2022,20:29:27,0.000,0.0,1.127,0.0
09/11/2022,20:30:28,0.000,0.0,1.127,0.0
09/11/2022,20:31:27,0.000,0.0,1.127,0.0
09/11/2022,20:32:28,0.000,0.0,1.127,0.0
09/11/2022,20:33:28,0.001,0.0,1.127,0.0
09/11/2022,20:34:27,0.000,0.0,1.127,0.0
09/11/2022,20:35:27,0.000,0.0,1.127,0.0
09/11/2022,20:36:28,-0.000,0.0,1.127,0.0
09/11/2022,20:37:27,0.001,0.0,1.127,0.0
09/11/2022,20:38:27,0.001,0.0,1.127,0.0
09/11/2022,20:39:27,0.000,0.0,1.127,0.0
09/11/2022,20:40:28,-0.000,0.0,1.127,0.0
09/11/2022,20:41:27,0.000,0.0,1.127,0.0
09/11/2022,20:42:27,0.000,0.0,1.127,0.0
09/11/2022,20:43:28,-0.000,0.0,1.127,0.0
09/11/2022,20:44:28,0.001,0.0,1.127,0.0
09/11/2022,20:45:28,-0.001,0.0,1.127,0.0
09/11/2022,20:46:27,0.000,0.0,1.127,0.0
09/11/2022,20:47:27,0.000,0.0,1.127,0.0
09/11/2022,20:48:27,-0.000,0.0,1.127,0.0
09/11/2022,20:49:27,0.000,0.0,1.127,0.0
09/11/2022,20:50:28,0.000,0.0,1.127,0.0
09/11/2022,20:51:28,0.000,0.0,1.127,0.0
09/11/2022,20:52:27,0.000,0.0,1.127,0.0
09/11/2022,20:53:27,0.000,0.0,1.127,0.0
09/11/2022,20:54:27,-0.001,0.0,1.127,0.0
09/11/2022,20:55:28,0.001,0.0,1.127,0.0
09/11/2022,20:56:28,0.001,0.0,1.127,0.0
09/11/2022,20:57:27,0.000,0.0,1.127,0.0
09/11/2022,20:58:28,0.000,0.0,1.127,0.0
09/11/2022,20:59:27,0.001,0.0,1.127,0.0
09/11/2022,21:00:28,0.000,0.0,1.127,0.0
09/11/2022,21:01:28,0.000,0.0,1.127,0.0
09/11/2022,21:02:28,0.000,0.0,1.127,0.0
09/11/2022,21:03:28,0.002,0.0,1.127,0.0
09/11/2022,21:04:27,0.000,0.0,1.127,0.0
09/11/2022,21:05:28,0.000,0.0,1.127,0.0
09/11/2022,21:06:28,0.000,0.0,1.127,0.0
09/11/2022,21:07:27,0.000,0.0,1.127,0.0
09/11/2022,21:08:28,0.000,0.0,1.127,0.0
09/11/2022,21:09:28,0.000,0.0,1.127,0.0
09/11/2022,21:10:28,0.001,0.0,1.127,0.0
09/11/2022,21:11:28,0.000,0.0,1.127,0.0
09/11/2022,21:12:27,-0.001,0.0,1.127,0.0
09/11/2022,21:13:28,0.001,0.0,1.127,0.0
09/11/2022,21:14:28,0.001,0.0,1.127,0.0
09/11/2022,21:15:28,0.000,0.0,1.127,0.0
09/11/2022,21:16:28,0.001,0.0,1.127,0.0
09/11/2022,21:17:28,0.001,0.0,1.127,0.0
09/11/2022,21:18:27,0.000,0.0,1.127,0.0
09/11/2022,21:19:28,-0.000,0.0,1.127,0.0
09/11/2022,21:20:27,0.000,0.0,1.127,0.0
09/11/2022,21:21:28,0.001,0.0,1.127,0.0
09/11/2022,21:22:28,0.000,0.0,1.127,0.0
09/11/2022,21:23:27,0.000,0.0,1.127,0.0
09/11/2022,21:24:27,0.000,0.0,1.127,0.0
09/11/2022,21:25:27,0.001,0.0,1.127,0.0
09/11/2022,21:26:28,0.000,0.0,1.127,0.0
09/11/2022,21:27:27,0.000,0.0,1.127,0.0
09/11/2022,21:28:27,0.001,0.0,1.127,0.0
09/11/2022,21:29:28,-0.000,0.0,1.127,0.0
09/11/2022,21:30:28,0.000,0.0,1.127,0.0
09/11/2022,21:31:27,0.000,0.0,1.127,0.0
09/11/2022,21:32:27,0.001,0.0,1.127,0.0
09/11/2022,21:33:27,0.001,0.0,1.127,0.0
09/11/2022,21:34:28,0.001,0.0,1.127,0.0
09/11/2022,21:35:28,0.001,0.0,1.127,0.0
09/11/2022,21:36:28,0.001,0.0,1.127,0.0
09/11/2022,21:37:27,-0.001,0.0,1.127,0.0
09/11/2022,21:38:27,-0.001,0.0,1.127,0.0
09/11/2022,21:39:27,0.000,0.0,1.127,0.0
09/11/2022,21:40:27,0.000,0.0,1.127,0.0
09/11/2022,21:41:28,0.000,0.0,1.127,0.0
09/11/2022,21:42:28,-0.000,0.0,1.127,0.0
09/11/2022,21:43:28,-0.000,0.0,1.127,0.0
09/11/2022,21:44:27,0.000,0.0,1.127,0.0
09/11/2022,21:45:28,0.000,0.0,1.127,0.0
09/11/2022,21:46:28,0.000,0.0,1.127,0.0
09/11/2022,21:47:28,0.000,0.0,1.127,0.0
09/11/2022,21:48:27,0.001,0.0,1.127,0.0
09/11/2022,21:49:28,0.000,0.0,1.127,0.0
09/11/2022,21:50:28,0.000,0.0,1.127,0.0
09/11/2022,21:51:27,0.001,0.0,1.127,0.0
09/11/2022,21:52:28,-0.001,0.0,1.127,0.0
09/11/2022,21:53:28,-0.000,0.0,1.127,0.0
09/11/2022,21:54:28,-0.000,0.0,1.127,0.0
09/11/2022,21:55:28,0.001,0.0,1.127,0.0
09/11/2022,21:56:28,0.000,0.0,1.127,0.0
09/11/2022,21:57:27,0.000,0.0,1.127,0.0
09/11/2022,21:58:28,0.000,0.0,1.127,0.0
09/11/2022,21:59:28,0.000,0.0,1.127,0.0
09/11/2022,22:00:28,0.000,0.0,1.127,0.0
09/11/2022,22:01:28,0.000,0.0,1.127,0.0
09/11/2022,22:02:28,0.000,0.0,1.127,0.0
09/11/2022,22:03:27,0.000,0.0,1.127,0.0
09/11/2022,22:04:28,0.001,0.0,1.127,0.0
09/11/2022,22:05:28,0.001,0.0,1.127,0.0
09/11/2022,22:06:28,0.001,0.0,1.127,0.0
09/11/2022,22:07:27,0.001,0.0,1.127,0.0
09/11/2022,22:08:28,0.000,0.0,1.127,0.0
09/11/2022,22:20:10,0.001,0.0,1.127,0.0
09/11/2022,22:25:16,0.000,0.0,1.127,0.0
09/11/2022,22:26:30,0.000,0.0,1.127,0.0
09/11/2022,22:27:29,0.001,0.0,1.127,0.0
09/11/2022,22:28:30,0.000,0.0,1.127,0.0
09/11/2022,22:29:29,0.000,0.0,1.127,0.0
09/11/2022,22:30:30,0.000,0.0,1.127,0.0
09/11/2022,22:31:29,0.000,0.0,1.127,0.0
09/11/2022,22:32:29,0.000,0.0,1.127,0.0
09/11/2022,22:33:29,0.001,0.0,1.127,0.0
09/11/2022,22:34:29,0.000,0.0,1.127,0.0
09/11/2022,22:35:29,0.000,0.0,1.127,0.0
09/11/2022,22:36:30,-0.000,0.0,1.127,0.0
09/11/2022,22:37:29,0.000,0.0,1.127,0.0
09/11/2022,22:38:29,-0.001,0.0,1.127,0.0
09/11/2022,22:39:29,-0.001,0.0,1.127,0.0
09/11/2022,22:40:30,0.000,0.0,1.127,0.0
09/11/2022,22:41:29,-0.000,0.0,1.127,0.0
09/11/2022,22:42:30,0.000,0.0,1.127,0.0
09/11/2022,22:43:29,0.001,0.0,1.127,0.0
09/11/2022,22:44:30,0.000,0.0,1.127,0.0
09/11/2022,22:45:30,-0.000,0.0,1.127,0.0
09/11/2022,22:46:29,0.001,0.0,1.127,0.0
09/11/2022,22:47:30,0.001,0.0,1.127,0.0
09/11/2022,22:48:29,0.001,0.0,1.127,0.0
09/11/2022,22:49:30,0.001,0.0,1.127,0.0
09/11/2022,22:50:29,0.000,0.0,1.127,0.0
09/11/2022,22:51:29,0.001,0.0,1.127,0.0
09/11/2022,22:52:29,0.001,0.0,1.127,0.0
09/11/2022,22:53:29,0.001,0.0,1.127,0.0
09/11/2022,22:54:29,0.001,0.0,1.127,0.0
09/11/2022,22:55:29,0.001,0.0,1.127,0.0
09/11/2022,22:56:29,0.000,0.0,1.127,0.0
09/11/2022,22:57:29,0.000,0.0,1.127,0.0
09/11/2022,22:58:29,-0.000,0.0,1.127,0.0
09/11/2022,22:59:29,0.000,0.0,1.127,0.0
09/11/2022,23:00:29,0.000,0.0,1.127,0.0
09/11/2022,23:01:29,0.000,0.0,1.127,0.0
09/11/2022,23:02:29,-0.000,0.0,1.127,0.0
09/11/2022,23:03:29,0.000,0.0,1.127,0.0
09/11/2022,23:04:30,0.000,0.0,1.127,0.0
09/11/2022,23:05:29,0.000,0.0,1.127,0.0
09/11/2022,23:06:29,-0.001,0.0,1.127,0.0
09/11/2022,23:07:30,-0.001,0.0,1.127,0.0